Regional Weather Roundup
Issued by NWS

Home | Current Version | Previous Version | Graphics & Text | Print | Product List | Glossary On
Versions: 1 2 3 4 5 6 7 8 9 10 11 12 13 14 15 16 17 18 19 20 21 22 23 24 25 26 27 28 29 30 31 32 33 34 35 36 37 38 39 40 41 42 43 44 45 46 47 48 49 50
000
ASUS43 KOAX 260102
RWRNE

WEATHER ROUNDUP FOR NEBRASKA
NATIONAL WEATHER SERVICE OMAHA NE
800 PM CDT SAT OCT 25 2014

NOTES: SATELLITE DATA IS BEING USED TO AUGMENT CLOUD COVER ABOVE
       12000 FEET.
       "FAIR" INDICATES FEW OR NO CLOUDS BELOW 12,000 FEET WITH NO
       SIGNIFICANT WEATHER AND/OR OBSTRUCTIONS TO VISIBILITY.

  * THESE STATIONS DO NOT REPORT WEATHER SUCH AS RAIN...SNOW OR FOG.

NEZ001>004-019>022-054>056-260200-
NEBRASKA PANHANDLE

CITY           SKY/WX    TMP DP  RH WIND       PRES   REMARKS
SCOTTSBLUFF    CLEAR     60  38  43 E10       29.98S
ALLIANCE       CLEAR     51  36  56 S10       29.99S
CHADRON        CLEAR     56  39  53 CALM      29.93F
KIMBALL        CLEAR     55  31  40 SE7       30.02S
SIDNEY         CLEAR     55  37  50 S6        30.03S
$$

NEZ057>060-069>072-079>082-260200-
SOUTHWEST NEBRASKA

CITY           SKY/WX    TMP DP  RH WIND       PRES   REMARKS
NORTH PLATTE   CLEAR     54  44  69 E8        30.00R
IMPERIAL       CLEAR     61  39  44 E10       29.98F
LEXINGTON      CLEAR     58  47  65 E8        30.00R
MCCOOK         CLEAR     65  49  56 NE8       29.96S
OGALLALA       CLEAR     63  47  55 E6        29.99F
$$

NEZ005>010-023>029-035>040-094-260200-
NORTH CENTRAL NEBRASKA

CITY           SKY/WX    TMP DP  RH WIND       PRES   REMARKS
VALENTINE      CLEAR     53  33  46 E7        30.02S
AINSWORTH      CLEAR     52  35  52 E8        30.03S
BROKEN BOW     CLEAR     58  43  57 E7        30.02S
O`NEILL        CLEAR     55  37  52 E9        30.05S
ORD            CLEAR     53  40  61 E3        30.02R
THEDFORD       CLEAR     59  42  52 SE5       30.03R
$$

NEZ041-046>049-061>064-073>077-083>087-260200-
SOUTH CENTRAL NEBRASKA

CITY           SKY/WX    TMP DP  RH WIND       PRES   REMARKS
GRAND ISLAND   CLEAR     59  45  59 E7        30.02S
AURORA         CLEAR     58  43  58 E7        30.02R
HASTINGS       CLEAR     60  45  57 E7        30.01R
HEBRON         CLEAR     64  48  56 E3        29.99S
HOLDREGE       CLEAR     61  48  61 CALM      29.99R
KEARNEY *      CLEAR     57  45  62 NE9       30.01S
YORK           CLEAR     57  46  67 E8        30.02S
$$

NEZ011>018-030>034-042>045-260200-
NORTHEAST NEBRASKA

CITY           SKY/WX    TMP DP  RH WIND       PRES   REMARKS
NORFOLK        CLEAR     57  37  47 E3        30.05R
ALBION         CLEAR     57  37  47 E9        30.04S
BLAIR          CLEAR     62  41  46 NE7       30.04S
COLUMBUS *     CLEAR     55  37  50 E5        30.05S
FREMONT        CLEAR     64  40  42 NE3       30.04S
TEKAMAH        CLEAR     58  39  49 E7        30.04R
WAYNE          CLEAR     50  38  64 CALM      30.07R
$$

NEZ050>053-065>068-078-088>093-260200-
SOUTHEAST NEBRASKA

CITY           SKY/WX    TMP DP  RH WIND       PRES   REMARKS
LINCOLN        CLEAR     57  44  62 NE7       30.03S
OMAHA EPPLEY   CLEAR     65  40  39 E9        30.04R
BEATRICE       CLEAR     63  47  55 E5        30.00S
FALLS CITY     CLEAR     64  46  52 E7        30.01R
NEBRASKA CITY  CLEAR     63  38  40 E5        30.03R
PLATTSMOUTH    CLEAR     63  39  41 E5        30.03S
$$

NEZ044-045-051>053-067-260200-
OMAHA AREA

CITY           SKY/WX    TMP DP  RH WIND       PRES   REMARKS
OMAHA EPPLEY   CLEAR     65  40  39 E9        30.04R
BLAIR          CLEAR     62  41  46 NE7       30.04S
FREMONT        CLEAR     64  40  42 NE3       30.04S
OFFUTT AFB     CLEAR     58  48  69 NE6       30.03R
PLATTSMOUTH    CLEAR     63  39  41 E5        30.03S
WAHOO          FAIR      57  41  54 NE6       30.04R
$$



USA.gov is the U.S. government's official web portal to all federal, state and local government web resources and services.